CW9687 Weather Reports


time (UTC)temp
C
wind
direction
speed
KPH
gust
KPH
rain 1hr
cm
rain 24hr
cm
rain mn
cm
humidity
%
barometer
mb
20260506155022 16 351 3.2 8.0 0.00 0.00 0.00 75 1018.8
20260506154520 16 6 1.6 6.4 0.00 0.00 0.00 75 1018.8
20260506154021 16 19 0.0 4.8 0.00 0.00 0.00 76 1018.8
20260506153516 16 22 0.0 3.2 0.00 0.00 0.00 77 1019.0
20260506153015 16 6 0.0 0.0 0.00 0.00 0.00 78 1018.9
20260506152514 15 243 0.0 0.0 0.00 0.00 0.00 79 1019.0
20260506152014 15 242 0.0 6.4 0.00 0.00 0.00 80 1019.1
20260506151511 15 314 1.6 6.4 0.00 0.00 0.00 80 1018.9
20260506151010 14 210 0.0 3.2 0.00 0.00 0.00 81 1019.0
20260506150509 14 200 0.0 3.2 0.00 0.00 0.00 82 1019.1
20260506150101 13 135 0.0 1.6 0.00 0.00 0.00 82 1019.0
20260506145554 13 135 0.0 3.2 0.00 0.00 0.00 83 1019.1
20260506145054 13 135 0.0 4.8 0.00 0.00 0.00 83 1018.9
20260506144553 12 173 1.6 6.4 0.00 0.00 0.00 84 1019.0
20260506144051 12 171 1.6 6.4 0.00 0.00 0.00 84 1018.9
20260506143549 12 171 0.0 4.8 0.00 0.00 0.00 85 1019.0
20260506143101 12 76 1.6 4.8 0.00 0.00 0.00 86 1018.9
20260506142547 11 89 0.0 3.2 0.00 0.00 0.00 86 1019.0
20260506142045 11 88 0.0 4.8 0.00 0.00 0.00 87 1018.9
20260506141544 11 88 0.0 4.8 0.00 0.00 0.00 87 1018.8
20260506141046 11 167 1.6 4.8 0.00 0.00 0.00 87 1018.8
20260506140542 10 162 1.6 4.8 0.00 0.00 0.00 87 1018.8
20260506140015 10 215 0.0 1.6 0.00 0.00 0.00 87 1018.7
20260506135512 9 215 0.0 1.6 0.00 0.00 0.00 87 1018.7
20260506135013 9 78 0.0 0.0 0.00 0.00 0.00 86 1018.6
20260506134510 9 78 0.0 0.0 0.00 0.00 0.00 86 1018.6
20260506134011 9 78 0.0 0.0 0.00 0.00 0.00 86 1018.6
20260506133508 9 78 0.0 3.2 0.00 0.00 0.00 86 1018.7
20260506133009 9 78 0.0 4.8 0.00 0.00 0.00 86 1018.6
20260506132506 9 78 0.0 6.4 0.00 0.00 0.00 86 1018.5
20260506132006 9 134 0.0 4.8 0.00 0.00 0.00 86 1018.3
20260506131508 9 139 0.0 0.0 0.00 0.00 0.00 86 1018.3
20260506131004 9 139 0.0 0.0 0.00 0.00 0.00 86 1018.2
20260506130509 9 139 0.0 1.6 0.00 0.00 0.00 86 1018.2
20260506130005 9 217 0.0 1.6 0.00 0.00 0.00 86 1018.1
20260506125504 9 109 0.0 4.8 0.00 0.00 0.00 86 1018.0
20260506125004 8 109 0.0 4.8 0.00 0.00 0.00 86 1017.9
20260506124504 9 109 0.0 4.8 0.00 0.00 0.00 86 1018.0
20260506124004 9 109 0.0 4.8 0.00 0.00 0.00 86 1018.0
20260506123504 9 108 0.0 4.8 0.00 0.00 0.00 86 1017.9
20260506123003 9 108 0.0 6.4 0.00 0.00 0.00 86 1017.9
20260506122502 8 108 1.6 6.4 0.00 0.00 0.00 85 1017.9
20260506122001 8 108 0.0 4.8 0.00 0.00 0.00 85 1018.0
20260506121502 9 108 0.0 4.8 0.00 0.00 0.00 85 1018.2
20260506121001 9 108 0.0 6.4 0.00 0.00 0.00 85 1018.1
20260506120501 9 108 0.0 6.4 0.00 0.00 0.00 85 1018.0
20260506115601 9 108 0.0 6.4 0.00 0.00 0.00 85 1018.2
20260506115100 9 108 1.6 6.4 0.00 0.00 0.00 85 1018.1
20260506114607 9 108 3.2 6.4 0.00 0.00 0.00 85 1018.2
20260506114101 9 109 1.6 6.4 0.00 0.00 0.00 85 1018.2
20260506113558 9 109 1.6 4.8 0.00 0.00 0.00 85 1018.3
20260506113057 9 109 1.6 4.8 0.00 0.00 0.00 85 1018.3
20260506112557 9 109 1.6 4.8 0.00 0.00 0.00 85 1018.3
20260506112055 9 109 0.0 3.2 0.00 0.00 0.00 85 1018.3
20260506111555 9 109 0.0 3.2 0.00 0.00 0.00 84 1018.3
20260506111055 9 109 0.0 3.2 0.00 0.00 0.00 85 1018.2
20260506110554 9 109 0.0 0.0 0.00 0.00 0.00 85 1018.2
20260506110100 9 109 0.0 0.0 0.00 0.00 0.00 85 1018.1
20260506105556 10 109 0.0 3.2 0.00 0.00 0.00 85 1018.2
20260506105052 10 109 0.0 4.8 0.00 0.00 0.00 85 1018.2
20260506104551 10 109 0.0 4.8 0.00 0.00 0.00 85 1018.2
20260506104050 10 109 0.0 0.0 0.00 0.00 0.00 85 1018.1
20260506103552 10 109 0.0 0.0 0.00 0.00 0.00 85 1018.2
20260506103049 10 109 0.0 0.0 0.00 0.00 0.00 85 1018.1
20260506102549 10 109 0.0 0.0 0.00 0.00 0.00 85 1018.1
20260506102049 10 109 0.0 1.6 0.00 0.00 0.00 85 1018.1
20260506101554 10 109 0.0 6.4 0.00 0.00 0.00 85 1018.2
20260506101051 10 109 1.6 9.7 0.00 0.00 0.00 85 1018.0
20260506100551 10 111 3.2 9.7 0.00 0.00 0.00 85 1017.9
20260506100048 10 102 3.2 9.7 0.00 0.00 0.00 85 1018.0
20260506095552 10 103 3.2 9.7 0.00 0.00 0.00 85 1018.0
20260506095047 10 90 4.8 8.0 0.00 0.00 0.00 85 1018.1
20260506094606 10 96 0.0 6.4 0.00 0.00 0.00 85 1017.9
20260506094045 10 96 0.0 4.8 0.00 0.00 0.00 85 1018.0
20260506093546 10 96 0.0 4.8 0.00 0.00 0.00 85 1018.0
20260506093052 10 96 1.6 9.7 0.00 0.00 0.00 85 1018.1
20260506092545 10 96 3.2 11.3 0.00 0.00 0.00 85 1018.1
20260506092045 10 99 4.8 11.3 0.00 0.00 0.00 85 1018.1
20260506091544 10 93 4.8 9.7 0.00 0.00 0.00 85 1018.0
20260506091043 10 93 4.8 9.7 0.00 0.00 0.00 85 1018.2
20260506090542 10 89 4.8 8.0 0.00 0.00 0.00 84 1018.2
20260506090041 10 94 1.6 4.8 0.00 0.00 0.00 84 1018.3
20260506085539 10 94 0.0 6.4 0.00 0.00 0.00 84 1018.3
20260506085040 10 94 3.2 6.4 0.00 0.00 0.00 84 1018.3
20260506084539 10 94 0.0 3.2 0.00 0.00 0.00 84 1018.3
20260506084041 10 94 0.0 4.8 0.00 0.00 0.00 84 1018.4
20260506083539 11 94 1.6 4.8 0.00 0.00 0.00 84 1018.4
20260506083038 11 94 1.6 4.8 0.00 0.00 0.00 84 1018.4
20260506082537 11 94 0.0 6.4 0.00 0.00 0.00 84 1018.4
20260506082036 11 94 1.6 6.4 0.00 0.00 0.00 84 1018.5
20260506081537 11 94 1.6 6.4 0.00 0.00 0.00 84 1018.4
20260506081035 11 94 3.2 6.4 0.00 0.00 0.00 84 1018.5
20260506080535 11 94 3.2 6.4 0.00 0.00 0.00 84 1018.5
20260506073038 11 64 1.6 4.8 0.00 0.00 0.00 84 1018.4
20260506072532 11 63 0.0 4.8 0.00 0.00 0.00 83 1018.4
20260506072032 11 62 1.6 4.8 0.00 0.00 0.00 83 1018.3
20260506071534 11 60 0.0 4.8 0.00 0.00 0.00 83 1018.4
20260506071031 11 50 1.6 4.8 0.00 0.00 0.00 83 1018.3
20260506070527 11 46 0.0 0.0 0.00 0.00 0.00 83 1018.2
20260506062025 12 46 0.0 0.0 0.00 0.00 0.00 82 1018.0
20260506061531 12 46 0.0 0.0 0.00 0.00 0.00 82 1017.9
20260506061026 12 46 0.0 0.0 0.00 0.00 0.00 82 1017.8
20260506060524 12 46 0.0 3.2 0.00 0.00 0.00 82 1017.8
20260506051021 12 52 0.0 8.0 0.00 0.00 0.00 81 1017.4
20260506050521 12 51 0.0 6.4 0.00 0.00 0.00 81 1017.4
20260506045011 12 30 1.6 6.4 0.00 0.00 0.00 80 1017.3
20260506044510 12 348 0.0 8.0 0.00 0.00 0.00 80 1017.2
20260506044016 12 339 0.0 11.3 0.00 0.00 0.00 80 1017.2
20260506043510 12 333 0.0 11.3 0.00 0.00 0.00 80 1017.2
20260506043010 12 69 0.0 4.8 0.00 0.00 0.00 80 1017.2
20260506042511 12 6 0.0 4.8 0.00 0.00 0.00 80 1017.2
20260506042013 12 2 0.0 8.0 0.00 0.00 0.00 80 1017.1
20260506041509 12 37 1.6 9.7 0.00 0.00 0.00 79 1017.1
20260506041012 12 38 1.6 9.7 0.00 0.00 0.00 79 1017.0
20260506040507 13 30 1.6 12.9 0.00 0.00 0.00 79 1016.9
20260506040100 13 50 4.8 14.5 0.00 0.00 0.00 79 1016.8
20260506035551 13 350 1.6 17.7 0.00 0.00 0.00 79 1016.7
20260506035050 13 329 4.8 17.7 0.00 0.00 0.00 78 1016.6
20260506034603 13 310 1.6 12.9 0.00 0.00 0.00 78 1016.5
20260506034049 13 329 0.0 12.9 0.00 0.00 0.00 77 1016.4
20260506033548 13 6 0.0 11.3 0.00 0.00 0.00 77 1016.3
20260506033048 13 39 1.6 11.3 0.00 0.00 0.00 77 1016.3
20260506032547 13 1 1.6 11.3 0.00 0.00 0.00 76 1016.3
20260506032047 13 42 0.0 14.5 0.00 0.00 0.00 76 1016.2
20260506031557 13 346 0.0 14.5 0.00 0.00 0.00 76 1016.1
20260506031147 13 12 1.6 14.5 0.00 0.00 0.00 76 1016.0
20260506030544 13 37 4.8 17.7 0.00 0.00 0.00 75 1015.9
20260506030039 13 59 4.8 17.7 0.00 0.00 0.00 75 1015.7
20260506025538 13 343 1.6 19.3 0.00 0.00 0.00 74 1015.7
20260506025038 13 23 3.2 22.5 0.00 0.00 0.00 74 1015.7
20260506024538 14 71 1.6 22.5 0.00 0.00 0.00 73 1015.6
20260506024038 14 321 4.8 17.7 0.00 0.00 0.00 72 1015.6
20260506023538 14 336 1.6 24.1 0.00 0.00 0.00 72 1015.6
20260506023037 14 345 3.2 24.1 0.00 0.00 0.00 71 1015.5
20260506022537 15 7 3.2 16.1 0.00 0.00 0.00 71 1015.6
20260506022037 15 316 3.2 20.9 0.00 0.00 0.00 70 1015.5
20260506021537 15 42 1.6 17.7 0.00 0.00 0.00 69 1015.4
20260506021036 15 42 4.8 17.7 0.00 0.00 0.00 69 1015.4
20260506020536 15 23 6.4 17.7 0.00 0.00 0.00 68 1015.4
20260506020024 15 356 3.2 17.7 0.00 0.00 0.00 68 1015.4
20260506015525 15 10 3.2 17.7 0.00 0.00 0.00 67 1015.3
20260506015026 15 343 4.8 17.7 0.00 0.00 0.00 66 1015.2
20260506014524 16 3 4.8 19.3 0.00 0.00 0.00 65 1015.2
20260506014024 16 54 4.8 16.1 0.00 0.00 0.00 65 1015.3
20260506013525 16 73 1.6 17.7 0.00 0.00 0.00 65 1015.3
20260506013024 16 331 6.4 22.5 0.00 0.00 0.00 64 1015.2
20260506012524 16 48 8.0 25.7 0.00 0.00 0.00 64 1015.3
20260506012027 16 350 8.0 25.7 0.00 0.00 0.00 63 1015.2
20260506011527 16 356 3.2 22.5 0.00 0.00 0.00 62 1015.2
20260506011023 16 359 8.0 22.5 0.00 0.00 0.00 62 1015.2
20260506010523 17 6 6.4 22.5 0.00 0.00 0.00 61 1015.1
20260506010008 17 3 6.4 24.1 0.00 0.00 0.00 60 1015.3
20260506005503 17 62 6.4 24.1 0.00 0.00 0.00 60 1015.3
20260506005004 17 44 3.2 24.1 0.00 0.00 0.00 61 1015.2
20260506004602 17 8 1.6 20.9 0.00 0.00 0.00 60 1015.1
20260506004001 17 316 4.8 19.3 0.00 0.00 0.00 60 1015.1
20260506003503 17 23 4.8 24.1 0.00 0.00 0.00 59 1015.2
20260506003003 18 54 6.4 24.1 0.00 0.00 0.00 60 1015.0
20260506002500 18 41 3.2 17.7 0.00 0.00 0.00 61 1015.0
20260506002100 18 339 8.0 30.6 0.00 0.00 0.00 61 1014.9
20260506001600 18 359 8.0 32.2 0.00 0.00 0.00 62 1014.9
20260506001059 18 12 6.4 19.3 0.00 0.00 0.00 61 1014.9
20260506000600 18 14 4.8 24.1 0.00 0.00 0.00 61 1014.9
20260506000052 18 350 3.2 24.1 0.00 0.00 0.00 60 1014.9
20260505235552 18 50 3.2 25.7 0.00 0.00 0.00 59 1014.8
20260505235052 18 321 9.7 27.4 0.00 0.00 0.00 59 1014.8
20260505234558 18 66 8.0 24.1 0.00 0.00 0.00 59 1014.8
20260505234052 18 34 3.2 17.7 0.00 0.00 0.00 59 1014.9
20260505233551 18 64 8.0 22.5 0.00 0.00 0.00 58 1014.9
20260505233105 18 355 3.2 16.1 0.00 0.00 0.00 59 1015.0
20260505232551 18 8 4.8 19.3 0.00 0.00 0.00 59 1014.8
20260505232053 18 38 3.2 16.1 0.00 0.00 0.00 58 1014.9
20260505231555 19 26 8.0 16.1 0.00 0.00 0.00 58 1014.8
20260505231050 19 61 1.6 16.1 0.00 0.00 0.00 57 1014.9
20260505230551 19 2 3.2 19.3 0.00 0.00 0.00 56 1015.0
20260505230034 20 360 6.4 19.3 0.00 0.00 0.00 54 1015.0
20260505225535 20 311 1.6 14.5 0.00 0.00 0.00 55 1015.1
20260505225034 20 46 3.2 14.5 0.00 0.00 0.00 55 1015.0
20260505224533 20 12 4.8 14.5 0.00 0.00 0.00 56 1015.1
20260505224035 20 49 3.2 19.3 0.00 0.00 0.00 56 1015.1
20260505223533 20 147 3.2 19.3 0.00 0.00 0.00 55 1015.2
20260505223036 20 325 4.8 19.3 0.00 0.00 0.00 56 1015.3
20260505222533 20 303 1.6 27.4 0.00 0.00 0.00 57 1015.2
20260505222031 19 167 6.4 27.4 0.00 0.00 0.00 56 1015.3
20260505221531 19 26 4.8 17.7 0.00 0.00 0.00 56 1015.3
20260505221031 19 69 3.2 17.7 0.00 0.00 0.00 58 1015.4
20260505220528 19 339 4.8 25.7 0.00 0.00 0.00 59 1015.3
20260505220021 19 33 6.4 25.7 0.00 0.00 0.00 59 1015.4
20260505215520 19 353 6.4 20.9 0.00 0.00 0.00 60 1015.5
20260505215019 18 344 6.4 20.9 0.00 0.00 0.00 60 1015.6
20260505214518 18 33 1.6 25.7 0.00 0.00 0.00 60 1015.7
20260505214022 18 318 6.4 25.7 0.00 0.00 0.00 59 1015.7
20260505213518 18 35 4.8 17.7 0.00 0.00 0.00 59 1015.7
20260505213017 18 351 6.4 16.1 0.00 0.00 0.00 60 1015.9
20260505212518 18 301 3.2 16.1 0.00 0.00 0.00 60 1015.8
20260505212018 18 23 0.0 12.9 0.00 0.00 0.00 61 1015.8
20260505211518 18 36 0.0 17.7 0.00 0.00 0.00 62 1015.7
20260505211017 17 308 4.8 17.7 0.00 0.00 0.00 64 1015.8
20260505210515 17 307 1.6 16.1 0.00 0.00 0.00 64 1015.8
20260505210010 17 334 1.6 17.7 0.00 0.00 0.00 64 1015.8
20260505205514 17 311 8.0 19.3 0.00 0.00 0.00 63 1015.8
20260505205011 17 360 4.8 24.1 0.00 0.00 0.00 62 1015.7
20260505204508 18 290 11.3 24.1 0.00 0.00 0.00 62 1015.7
20260505204009 18 316 11.3 24.1 0.00 0.00 0.00 61 1015.7
20260505203511 18 302 11.3 30.6 0.00 0.00 0.00 61 1015.8
20260505203008 18 273 12.9 30.6 0.00 0.00 0.00 63 1015.7
20260505202508 17 356 9.7 30.6 0.00 0.00 0.00 64 1015.6
20260505202008 17 306 9.7 29.0 0.00 0.00 0.00 64 1015.7
20260505201507 17 291 14.5 32.2 0.00 0.00 0.00 64 1015.7
20260505201009 17 308 16.1 38.6 0.00 0.00 0.00 63 1015.7
20260505200514 17 329 17.7 38.6 0.00 0.00 0.00 64 1015.8
20260505200100 17 304 11.3 30.6 0.00 0.00 0.00 63 1015.8
20260505195556 17 7 8.0 24.1 0.00 0.00 0.00 64 1015.8
20260505195056 17 333 11.3 25.7 0.00 0.00 0.00 63 1015.8
20260505194609 17 300 12.9 25.7 0.00 0.00 0.00 62 1015.9
20260505194055 17 292 6.4 27.4 0.00 0.00 0.00 64 1015.8
20260505193559 17 337 6.4 27.4 0.00 0.00 0.00 63 1015.8
20260505193055 18 293 9.7 25.7 0.00 0.00 0.00 63 1015.7
20260505192555 18 254 14.5 29.0 0.00 0.00 0.00 61 1015.7
20260505192055 18 314 14.5 29.0 0.00 0.00 0.00 61 1015.8
20260505191554 18 307 6.4 22.5 0.00 0.00 0.00 62 1015.7
20260505191053 18 306 12.9 25.7 0.00 0.00 0.00 61 1015.8
20260505190551 18 297 8.0 20.9 0.00 0.00 0.00 63 1015.8
20260505190041 18 304 9.7 19.3 0.00 0.00 0.00 62 1015.8
20260505185538 18 325 11.3 20.9 0.00 0.00 0.00 63 1015.8
20260505185038 18 321 12.9 20.9 0.00 0.00 0.00 63 1015.8
20260505184537 18 283 4.8 19.3 0.00 0.00 0.00 63 1015.8
20260505184037 18 293 8.0 19.3 0.00 0.00 0.00 64 1015.8
20260505183536 18 277 9.7 17.7 0.00 0.00 0.00 64 1015.9
20260505183039 18 321 6.4 19.3 0.00 0.00 0.00 65 1015.8
20260505182534 18 304 9.7 19.3 0.00 0.00 0.00 65 1015.9
20260505182037 17 322 11.3 20.9 0.00 0.00 0.00 65 1015.9
20260505181533 18 281 11.3 20.9 0.00 0.00 0.00 65 1015.9
20260505181031 18 281 8.0 17.7 0.00 0.00 0.00 64 1015.8
20260505180531 18 356 6.4 17.7 0.00 0.00 0.00 65 1015.8
20260505180024 18 300 8.0 17.7 0.00 0.00 0.00 66 1015.9
20260505175523 18 296 9.7 19.3 0.00 0.00 0.00 65 1015.9
20260505175022 18 276 8.0 22.5 0.00 0.00 0.00 66 1015.8
20260505174522 18 276 9.7 22.5 0.00 0.00 0.00 64 1015.7
20260505174024 18 277 11.3 20.9 0.00 0.00 0.00 65 1015.7
20260505173521 18 291 6.4 14.5 0.00 0.00 0.00 64 1015.5
20260505173019 18 308 8.0 17.7 0.00 0.00 0.00 64 1015.6
20260505172520 17 331 11.3 19.3 0.00 0.00 0.00 64 1015.4
20260505172018 17 329 6.4 19.3 0.00 0.00 0.00 64 1015.5
20260505171522 17 315 4.8 12.9 0.00 0.00 0.00 64 1015.4
20260505171015 17 343 4.8 14.5 0.00 0.00 0.00 64 1015.4
20260505170515 17 10 3.2 16.1 0.00 0.00 0.00 61 1015.5
20260505170054 17 87 3.2 14.5 0.00 0.00 0.00 61 1015.6
20260505165553 17 319 4.8 11.3 0.00 0.00 0.00 62 1015.6
20260505165052 17 1 1.6 12.9 0.00 0.00 0.00 61 1015.6
20260505164615 17 32 3.2 17.7 0.00 0.00 0.00 62 1015.6
20260505164052 17 23 6.4 17.7 0.00 0.00 0.00 63 1015.7
20260505163549 17 36 6.4 17.7 0.00 0.00 0.00 64 1015.6
20260505163053 17 354 3.2 16.1 0.00 0.00 0.00 65 1015.6
20260505162547 17 60 1.6 9.7 0.00 0.00 0.00 67 1015.5
20260505162046 17 54 3.2 11.3 0.00 0.00 0.00 67 1015.5
20260505161546 16 48 1.6 11.3 0.00 0.00 0.00 67 1015.5
20260505161044 16 62 1.6 11.3 0.00 0.00 0.00 68 1015.5
20260505160545 16 54 3.2 14.5 0.00 0.00 0.00 69 1015.5